Location: Easter Hill Village
(37.9235°N, 122.3444°W)
Time: 22:26:51
(UTC+00:00)

Cosmos 2344 - Pass Details

Date: 16 September 2019
Orbit: 1260 x 2982 km, 63.3° (Epoch: 15 October)

Event Time Altitude Azimuth Distance (km) Brightness Sun altitude
Exits shadow 12:13:27 28° 272° (W) 2,189 4.3 -19.8°
Maximum altitude 12:16:31 38° 316° (NW) 1,861 4.2 -19.2°
Drops below altitude 10° 12:24:00 10° 23° (NNE) 3,520 6.5 -17.8°
Sets 12:27:27 0° 31° (NNE) 4,672 7.3 -17.2°
